| time (UTC) | temp F | wind direction | speed knots | gust knots | rain 1hr in | rain 24hr in | rain mn in | humidity % | barometer mb |
| 20260505041520 | 50 | 132 | 1.7 | 5.2 | 0.00 | 0.00 | 0.00 | 82 | 1012.0 |
| 20260505040026 | 50 | 155 | 1.7 | 4.3 | 0.00 | 0.00 | 0.00 | 81 | 1011.9 |
| 20260505034511 | 51 | 150 | 0.9 | 6.1 | 0.00 | 0.00 | 0.00 | 79 | 1011.9 |
| 20260505033023 | 51 | 168 | 0.9 | 7.0 | 0.00 | 0.00 | 0.00 | 78 | 1011.8 |
| 20260505031526 | 52 | 137 | 2.6 | 5.2 | 0.00 | 0.00 | 0.00 | 76 | 1011.9 |
| 20260505030016 | 52 | 177 | 2.6 | 6.1 | 0.00 | 0.00 | 0.00 | 75 | 1012.0 |
| 20260505024526 | 52 | 158 | 1.7 | 6.1 | 0.00 | 0.00 | 0.00 | 75 | 1012.0 |
| 20260505023026 | 52 | 132 | 0.9 | 4.3 | 0.00 | 0.00 | 0.00 | 73 | 1012.0 |
| 20260505021520 | 53 | 159 | 1.7 | 6.1 | 0.00 | 0.00 | 0.00 | 72 | 1012.0 |
| 20260505020023 | 53 | 188 | 1.7 | 7.8 | 0.00 | 0.00 | 0.00 | 71 | 1012.0 |
| 20260505014529 | 54 | 173 | 2.6 | 7.8 | 0.00 | 0.00 | 0.00 | 70 | 1011.9 |
| 20260505013015 | 54 | 156 | 1.7 | 7.0 | 0.00 | 0.00 | 0.00 | 69 | 1011.8 |
| 20260505011511 | 54 | 167 | 2.6 | 7.0 | 0.00 | 0.00 | 0.00 | 67 | 1011.6 |
| 20260505010017 | 55 | 169 | 2.6 | 11.3 | 0.00 | 0.00 | 0.00 | 64 | 1011.3 |
| 20260505004507 | 56 | 173 | 4.3 | 11.3 | 0.00 | 0.00 | 0.00 | 62 | 1011.0 |
| 20260505003011 | 56 | 140 | 3.5 | 7.0 | 0.00 | 0.00 | 0.00 | 59 | 1010.7 |
| 20260505001523 | 57 | 157 | 2.6 | 7.8 | 0.00 | 0.00 | 0.00 | 57 | 1010.4 |
| 20260505000011 | 57 | 169 | 3.5 | 9.6 | 0.00 | 0.00 | 0.00 | 56 | 1010.2 |
| 20260504234516 | 59 | 229 | 2.6 | 10.4 | 0.00 | 0.00 | 0.00 | 53 | 1009.9 |
| 20260504233006 | 59 | 238 | 2.6 | 11.3 | 0.00 | 0.00 | 0.00 | 52 | 1009.8 |
| 20260504231512 | 60 | 108 | 5.2 | 9.6 | 0.00 | 0.00 | 0.00 | 51 | 1009.6 |
| 20260504230019 | 62 | 43 | 2.6 | 13.0 | 0.00 | 0.00 | 0.00 | 45 | 1009.4 |
| 20260504224508 | 63 | 91 | 6.1 | 15.6 | 0.00 | 0.00 | 0.00 | 44 | 1009.2 |
| 20260504223005 | 64 | 158 | 1.7 | 14.8 | 0.00 | 0.00 | 0.00 | 43 | 1009.0 |
| 20260504221504 | 64 | 134 | 6.1 | 15.6 | 0.00 | 0.00 | 0.00 | 42 | 1008.8 |
| 20260504220006 | 65 | 142 | 6.1 | 21.7 | 0.00 | 0.00 | 0.00 | 42 | 1008.9 |
| 20260504214506 | 65 | 137 | 3.5 | 14.8 | 0.00 | 0.00 | 0.00 | 42 | 1008.8 |
| 20260504213010 | 66 | 186 | 5.2 | 14.8 | 0.00 | 0.00 | 0.00 | 42 | 1008.6 |
| 20260504211529 | 66 | 148 | 8.7 | 15.6 | 0.00 | 0.00 | 0.00 | 41 | 1008.5 |
| 20260504210024 | 67 | 195 | 6.1 | 15.6 | 0.00 | 0.00 | 0.00 | 39 | 1008.4 |
| 20260504204508 | 67 | 250 | 4.3 | 14.8 | 0.00 | 0.00 | 0.00 | 39 | 1008.4 |
| 20260504203013 | 67 | 294 | 7.0 | 13.9 | 0.00 | 0.00 | 0.00 | 38 | 1008.2 |
| 20260504201517 | 67 | 256 | 7.0 | 13.9 | 0.00 | 0.00 | 0.00 | 36 | 1008.3 |
| 20260504200018 | 67 | 201 | 7.0 | 16.5 | 0.00 | 0.00 | 0.00 | 36 | 1008.3 |
| 20260504194516 | 69 | 238 | 4.3 | 10.4 | 0.00 | 0.00 | 0.00 | 33 | 1008.5 |
| 20260504193018 | 69 | 231 | 2.6 | 10.4 | 0.00 | 0.00 | 0.00 | 32 | 1008.4 |
| 20260504191528 | 70 | 291 | 5.2 | 15.6 | 0.00 | 0.00 | 0.00 | 30 | 1008.4 |
| 20260504190019 | 69 | 324 | 5.2 | 15.6 | 0.00 | 0.00 | 0.00 | 31 | 1008.7 |
| 20260504184510 | 69 | 227 | 4.3 | 15.6 | 0.00 | 0.00 | 0.00 | 30 | 1008.9 |
| 20260504183020 | 69 | 222 | 6.1 | 15.6 | 0.00 | 0.00 | 0.00 | 30 | 1009.0 |
| 20260504181522 | 69 | 164 | 4.3 | 14.8 | 0.00 | 0.00 | 0.00 | 29 | 1009.0 |
| 20260504180018 | 69 | 248 | 2.6 | 15.6 | 0.00 | 0.00 | 0.00 | 29 | 1009.1 |
| 20260504174523 | 69 | 278 | 5.2 | 15.6 | 0.00 | 0.00 | 0.00 | 30 | 1009.0 |
| 20260504173022 | 69 | 240 | 6.1 | 14.8 | 0.00 | 0.00 | 0.00 | 28 | 1009.1 |
| 20260504171524 | 69 | 275 | 5.2 | 13.9 | 0.00 | 0.00 | 0.00 | 31 | 1009.1 |
| 20260504081515 | 44 | 161 | 0.9 | 2.6 | 0.00 | 0.00 | 0.00 | 61 | 1011.2 |
| 20260504050004 | 41 | 248 | 0.0 | 1.7 | 0.00 | 0.00 | 0.00 | 61 | 1011.3 |